When you browse on this site, cookies collect data to enhance your experience and personalize the content and advertising you see.
Visit our Privacy Policy to learn more. By continuing to use the site, you agree to this use of cookies and data.
  • Em Portugal
  • Lista de países
  • Para 7 dias
  • Temperatura da água
  • Mapa do tempo
  • Widgets de tempo
  • user-avatar
    Iniciar Sessão

    Previsão horária em Lugo

    Hoje, 23 Agosto, Sexta-feira

    Tempo Temperatura Precipitação Vento Pressão Humidade
    00:00 +19°C° 0 mm 1 m/s 724 mmHg 72%
    01:00 +18°C° 0 mm 1 m/s 724 mmHg 69%
    02:00 +18°C° 0 mm 1 m/s 724 mmHg 67%
    03:00 +18°C° 0 mm 1 m/s 723 mmHg 63%
    04:00 +18°C° 0 mm 1 m/s 723 mmHg 60%
    05:00 +18°C° 0 mm 1 m/s 723 mmHg 56%
    06:00 +21°C° 0 mm 1 m/s 723 mmHg 47%
    07:00 +25°C° 0 mm 1 m/s 724 mmHg 38%
    08:00 +28°C° 0 mm 1 m/s 724 mmHg 29%
    09:00 +30°C° 0 mm 1 m/s 724 mmHg 26%
    10:00 +33°C° 0 mm 1 m/s 724 mmHg 22%
    11:00 +36°C° 0 mm 2 m/s 724 mmHg 19%
    12:00 +36°C° 0 mm 2 m/s 724 mmHg 19%
    13:00 +37°C° 0 mm 2 m/s 724 mmHg 19%
    14:00 +37°C° 0 mm 2 m/s 724 mmHg 18%
    15:00 +35°C° 0 mm 2 m/s 724 mmHg 24%
    16:00 +32°C° 0 mm 2 m/s 724 mmHg 30%
    17:00 +30°C° 0 mm 2 m/s 723 mmHg 36%
    18:00 +27°C° 0 mm 2 m/s 723 mmHg 45%
    19:00 +23°C° 0 mm 1 m/s 724 mmHg 53%
    20:00 +18°C° 0 mm 0 m/s 724 mmHg 62%
    21:00 +18°C° 0 mm 0 m/s 724 mmHg 63%
    22:00 +17°C° 0 mm 0 m/s 723 mmHg 64%
    23:00 +17°C° 0 mm 0 m/s 723 mmHg 65%

    Amanhã, 24 Agosto, Sábado

    Tempo Temperatura Precipitação Vento Pressão Humidade
    00:00 +17°C° 0 mm 0 m/s 723 mmHg 65%
    01:00 +17°C° 0 mm 0 m/s 723 mmHg 66%
    02:00 +16°C° 0 mm 0 m/s 723 mmHg 66%
    03:00 +16°C° 0 mm 0 m/s 723 mmHg 67%
    04:00 +16°C° 0 mm 0 m/s 723 mmHg 68%
    05:00 +15°C° 0 mm 0 m/s 723 mmHg 69%
    06:00 +19°C° 0 mm 0 m/s 723 mmHg 60%
    07:00 +22°C° 0 mm 0 m/s 724 mmHg 51%
    08:00 +25°C° 0 mm 0 m/s 724 mmHg 41%
    09:00 +29°C° 0 mm 1 m/s 724 mmHg 37%
    10:00 +31°C° 0 mm 1 m/s 724 mmHg 32%
    11:00 +34°C° 0 mm 2 m/s 724 mmHg 27%
    12:00 +34°C° 0 mm 2 m/s 724 mmHg 27%
    13:00 +32°C° 0 mm 2 m/s 724 mmHg 27%
    14:00 +33°C° 0 mm 3 m/s 724 mmHg 27%
    15:00 +30°C° 0 mm 3 m/s 724 mmHg 34%
    16:00 +28°C° 0 mm 2 m/s 723 mmHg 42%
    17:00 +26°C° 0 mm 2 m/s 723 mmHg 50%
    18:00 +23°C° 0 mm 2 m/s 723 mmHg 63%
    19:00 +20°C° 0 mm 1 m/s 724 mmHg 76%
    20:00 +16°C° 0 mm 1 m/s 724 mmHg 89%
    21:00 +16°C° 0 mm 1 m/s 723 mmHg 91%
    22:00 +15°C° 0 mm 1 m/s 723 mmHg 93%
    23:00 +15°C° 0 mm 1 m/s 723 mmHg 95%

    Depois de amanhã, 25 Agosto, Domingo

    Tempo Temperatura Precipitação Vento Pressão Humidade
    00:00 +14°C° 0 mm 1 m/s 722 mmHg 95%
    01:00 +14°C° 0 mm 1 m/s 722 mmHg 94%
    02:00 +14°C° 0 mm 1 m/s 722 mmHg 94%
    03:00 +14°C° 0 mm 1 m/s 722 mmHg 94%
    04:00 +14°C° 0 mm 1 m/s 722 mmHg 95%
    05:00 +14°C° 0 mm 1 m/s 722 mmHg 96%
    06:00 +16°C° 0 mm 1 m/s 722 mmHg 89%
    07:00 +19°C° 0 mm 1 m/s 722 mmHg 81%
    08:00 +21°C° 0 mm 1 m/s 723 mmHg 74%
    09:00 +22°C° 0 mm 1 m/s 723 mmHg 68%
    10:00 +24°C° 0 mm 2 m/s 722 mmHg 62%
    11:00 +25°C° 0 mm 2 m/s 722 mmHg 55%
    12:00 +26°C° 0 mm 2 m/s 722 mmHg 54%
    13:00 +26°C° 0 mm 2 m/s 722 mmHg 53%
    14:00 +27°C° 0 mm 2 m/s 722 mmHg 52%
    15:00 +25°C° 0 mm 2 m/s 722 mmHg 59%
    16:00 +24°C° 0 mm 2 m/s 722 mmHg 65%
    17:00 +21°C° 0 mm 2 m/s 722 mmHg 71%
    18:00 +20°C° 0 mm 2 m/s 722 mmHg 78%
    19:00 +18°C° 0 mm 2 m/s 722 mmHg 84%
    20:00 +17°C° 0 mm 2 m/s 722 mmHg 91%
    21:00 +17°C° 0 mm 2 m/s 722 mmHg 92%
    22:00 +16°C° 0 mm 1 m/s 722 mmHg 94%
    23:00 +16°C° 0 mm 1 m/s 721 mmHg 95%

    26 Agosto, Segunda-feira

    Tempo Temperatura Precipitação Vento Pressão Humidade
    00:00 +16°C° 0 mm 1 m/s 721 mmHg 95%
    01:00 +16°C° 0 mm 1 m/s 721 mmHg 95%
    02:00 +16°C° 0 mm 1 m/s 720 mmHg 95%
    03:00 +16°C° 0 mm 1 m/s 721 mmHg 95%
    04:00 +15°C° 0 mm 1 m/s 721 mmHg 96%
    05:00 +15°C° 0 mm 1 m/s 721 mmHg 96%
    06:00 +18°C° 0 mm 1 m/s 721 mmHg 88%
    07:00 +20°C° 0 mm 1 m/s 721 mmHg 80%
    08:00 +21°C° 0 mm 1 m/s 721 mmHg 73%
    09:00 +23°C° 0 mm 2 m/s 721 mmHg 65%
    10:00 +25°C° 0 mm 2 m/s 721 mmHg 57%
    11:00 +27°C° 0 mm 2 m/s 722 mmHg 49%
    12:00 +27°C° 0 mm 2 m/s 721 mmHg 50%
    13:00 +27°C° 0 mm 2 m/s 721 mmHg 51%
    14:00 +27°C° 0 mm 3 m/s 721 mmHg 53%
    15:00 +26°C° 0 mm 3 m/s 721 mmHg 60%
    16:00 +24°C° 0 mm 3 m/s 721 mmHg 67%
    17:00 +21°C° 0 mm 3 m/s 721 mmHg 74%
    18:00 +20°C° 0 mm 2 m/s 721 mmHg 81%
    19:00 +18°C° 0 mm 2 m/s 721 mmHg 89%
    20:00 +18°C° 0 mm 1 m/s 722 mmHg 96%
    21:00 +16°C° 0 mm 1 m/s 722 mmHg 96%
    22:00 +16°C° 0 mm 1 m/s 722 mmHg 96%
    23:00 +16°C° 0 mm 1 m/s 722 mmHg 96%

    27 Agosto, Terça-feira

    Tempo Temperatura Precipitação Vento Pressão Humidade
    00:00 +16°C° 0 mm 1 m/s 722 mmHg 96%
    01:00 +16°C° 0 mm 1 m/s 722 mmHg 96%
    02:00 +16°C° 0 mm 1 m/s 722 mmHg 96%
    03:00 +16°C° 0 mm 1 m/s 722 mmHg 97%
    04:00 +15°C° 0 mm 1 m/s 722 mmHg 97%
    05:00 +15°C° 0 mm 1 m/s 722 mmHg 97%
    06:00 +18°C° 0 mm 1 m/s 722 mmHg 89%
    07:00 +20°C° 0 mm 1 m/s 723 mmHg 81%
    08:00 +21°C° 0 mm 1 m/s 723 mmHg 73%
    09:00 +24°C° 0 mm 1 m/s 723 mmHg 62%
    10:00 +27°C° 0 mm 1 m/s 724 mmHg 52%
    11:00 +29°C° 0 mm 1 m/s 724 mmHg 41%
    12:00 +30°C° 0 mm 1 m/s 724 mmHg 40%
    13:00 +30°C° 0 mm 2 m/s 724 mmHg 39%
    14:00 +30°C° 0 mm 2 m/s 723 mmHg 37%
    15:00 +28°C° 0 mm 2 m/s 723 mmHg 46%
    16:00 +26°C° 0 mm 2 m/s 723 mmHg 55%
    17:00 +25°C° 0 mm 2 m/s 723 mmHg 64%
    18:00 +21°C° 0 mm 2 m/s 723 mmHg 75%
    19:00 +20°C° 0 mm 1 m/s 723 mmHg 86%
    20:00 +16°C° 0 mm 1 m/s 723 mmHg 96%
    21:00 +16°C° 0 mm 1 m/s 723 mmHg 96%
    22:00 +16°C° 0 mm 1 m/s 724 mmHg 97%
    23:00 +15°C° 0 mm 0 m/s 724 mmHg 97%

    28 Agosto, Quarta-feira

    Tempo Temperatura Precipitação Vento Pressão Humidade
    00:00 +15°C° 0 mm 0 m/s 723 mmHg 96%
    01:00 +15°C° 0 mm 0 m/s 723 mmHg 96%
    02:00 +15°C° 0 mm 0 m/s 723 mmHg 96%
    03:00 +15°C° 0 mm 0 m/s 723 mmHg 96%
    04:00 +15°C° 0 mm 0 m/s 723 mmHg 96%
    05:00 +14°C° 0 mm 0 m/s 723 mmHg 96%
    06:00 +17°C° 0 mm 0 m/s 724 mmHg 84%
    07:00 +20°C° 0 mm 0 m/s 724 mmHg 73%
    08:00 +23°C° 0 mm 0 m/s 724 mmHg 61%
    09:00 +26°C° 0 mm 0 m/s 725 mmHg 51%
    10:00 +30°C° 0 mm 1 m/s 725 mmHg 42%
    11:00 +33°C° 0 mm 1 m/s 725 mmHg 32%
    12:00 +33°C° 0 mm 1 m/s 725 mmHg 31%
    13:00 +34°C° 0 mm 2 m/s 725 mmHg 30%
    14:00 +34°C° 0 mm 2 m/s 724 mmHg 30%
    15:00 +30°C° 0 mm 2 m/s 724 mmHg 41%
    16:00 +28°C° 0 mm 2 m/s 724 mmHg 53%
    17:00 +25°C° 0 mm 2 m/s 724 mmHg 64%
    18:00 +23°C° 0 mm 2 m/s 724 mmHg 75%
    19:00 +20°C° 0 mm 1 m/s 724 mmHg 86%
    20:00 +18°C° 0 mm 1 m/s 724 mmHg 97%
    21:00 +18°C° 0 mm 1 m/s 724 mmHg 97%
    22:00 +18°C° 0 mm 1 m/s 724 mmHg 97%
    23:00 +18°C° 0 mm 1 m/s 724 mmHg 97%
    Mostrar mais